Temp
16 16 16 16 16 15 15 15 15 15 15 15 14 14 14 15 14 15 15 15 14 14 14 14 14 13 13 13 14 14 14 14 14
15 16 16 16 16 16 16 15 15 14 14 14 15 15 14 14 14 14 15 15 15 14 14 14 14 14 14 14 14 13 13 14 13
14 15 15 15 15 15 15 15 15 14 14 14 14 14 14 14 14 14 14 14 14 14 14 14 14 14 14 14 14 12 11 11 13
14 14 14 14 14 14 14 15 15 15 14 14 14 14 14 14 14 14 13 14 14 14 14 14 13 13 14 14 13 12 11 12 12
13 14 14 13 13 13 13 13 13 14 14 14 14 14 14 13 14 14 14 13 13 14 14 14 13 13 14 14 13 13 12 12 13
13 13 13 13 13 13 13 13 13 13 13 13 13 13 13 13 13 13 14 13 13 13 13 14 14 13 13 14 14 14 14 13 13
13 13 13 13 13 13 13 13 13 13 13 13 13 13 13 12 13 13 13 13 13 13 13 14 13 14 13 13 14 14 14 14 13
12 13 13 12 13 13 13 13 13 13 13 12 12 12 12 12 12 13 13 13 13 13 13 13 13 13 13 13 13 14 14 14 14
12 12 12 12 12 12 12 12 12 12 12 12 12 12 12 11 12 12 13 13 13 13 13 13 13 13 13 13 13 13 14 14 14
12 12 11 11 12 12 12 12 12 12 11 11 11 11 11 11 11 11 11 12 12 12 13 13 13 13 13 13 13 13 13 14 14
11 11 11 11 11 11 11 11 11 11 11 11 10 10 10 10 10 10 10 11 11 12 12 13 13 13 13 13 13 13 13 14 14
11 10 10 10 11 11 11 11 11 11 10 10 11 10 9 9 9 9 9 9 10 11 12 13 13 13 13 12 13 13 13 13 13
10 10 10 10 10 11 11 11 11 11 11 11 10 10 9 9 9 8 8 8 9 10 11 12 13 13 13 12 12 12 13 13 13
10 10 9 10 10 10 11 11 10 10 10 10 10 10 9 9 8 8 8 8 9 10 11 12 12 13 13 13 12 13 12 13 13
10 9 9 9 10 10 10 10 8 9 9 10 10 10 9 9 9 8 8 8 9 10 12 12 12 13 13 13 11 13 13 12 12
10 9 9 9 9 9 9 9 9 9 7 7 11 11 10 9 8 7 7 8 9 10 11 12 13 13 14 14 13 13 12 11 12
9 9 9 9 9 8 8 7 7 8 6 6 7 8 10 9 9 8 8 8 9 10 11 12 11 12 13 13 12 14 13 13 12
9 9 8 8 8 8 7 7 6 6 7 7 6 6 7 7 9 9 10 9 8 9 10 11 11 11 11 11 12 12 16 13 11
9 9 8 8 8 7 7 6 6 6 7 7 6 7 7 7 8 9 8 10 9 9 9 9 11 10 10 10 10 10 12 12 11
9 8 8 8 8 7 7 7 6 6 6 6 6 6 7 8 7 8 8 8 9 9 9 9 9 9 9 9 9 9 10 10 10
Height
1528 1528 1527 1527 1526 1526 1526 1526 1526 1526 1526 1526 1526 1526 1527 1527 1527 1527 1528 1529 1530 1530 1531 1532 1532 1533 1534 1534 1535 1535 1535 1536 1536
1525 1524 1523 1523 1522 1522 1522 1522 1522 1522 1522 1522 1522 1522 1523 1523 1524 1524 1525 1526 1527 1528 1528 1529 1530 1530 1531 1532 1533 1533 1533 1534 1535
1521 1520 1519 1518 1518 1517 1517 1517 1517 1517 1517 1517 1518 1519 1519 1519 1520 1521 1521 1522 1523 1524 1525 1526 1526 1527 1528 1529 1530 1531 1532 1533 1534
1517 1516 1515 1515 1514 1514 1513 1513 1513 1513 1514 1514 1514 1514 1514 1514 1515 1516 1517 1518 1519 1520 1521 1522 1523 1524 1525 1526 1527 1528 1529 1530 1532
1514 1513 1512 1511 1510 1510 1509 1508 1508 1508 1508 1508 1509 1509 1509 1508 1509 1509 1510 1512 1514 1515 1516 1518 1519 1520 1521 1522 1524 1525 1527 1528 1529
1511 1510 1509 1507 1506 1505 1504 1504 1503 1503 1503 1502 1503 1503 1503 1503 1503 1503 1505 1506 1507 1509 1510 1513 1514 1515 1517 1518 1519 1521 1523 1525 1526
1510 1508 1506 1504 1503 1502 1500 1500 1499 1498 1497 1498 1498 1498 1497 1497 1497 1497 1499 1500 1502 1502 1503 1506 1509 1510 1512 1514 1515 1517 1519 1520 1522
1508 1506 1504 1502 1501 1499 1498 1496 1495 1493 1492 1491 1491 1491 1491 1490 1490 1490 1491 1493 1494 1495 1496 1498 1502 1504 1506 1508 1510 1512 1514 1516 1518
1506 1504 1502 1500 1498 1497 1495 1493 1492 1490 1488 1486 1485 1484 1484 1483 1483 1482 1484 1485 1486 1487 1489 1491 1494 1497 1499 1502 1505 1507 1510 1512 1514
1505 1503 1501 1498 1496 1494 1492 1490 1488 1486 1484 1482 1480 1478 1476 1475 1474 1474 1475 1476 1477 1478 1480 1483 1486 1488 1492 1495 1498 1501 1504 1507 1509
1503 1501 1499 1497 1495 1492 1489 1487 1484 1482 1480 1477 1475 1473 1470 1468 1466 1465 1466 1468 1469 1470 1472 1474 1477 1480 1483 1486 1490 1494 1498 1501 1504
1502 1500 1498 1496 1493 1490 1488 1485 1484 1481 1477 1474 1472 1468 1465 1462 1460 1457 1457 1459 1461 1464 1464 1467 1468 1472 1474 1476 1483 1489 1492 1495 1498
1500 1498 1496 1494 1491 1488 1486 1483 1481 1477 1474 1470 1467 1464 1460 1457 1454 1451 1451 1452 1455 1456 1459 1460 1461 1461 1466 1470 1475 1483 1486 1489 1493
1499 1497 1495 1493 1490 1487 1484 1481 1478 1474 1471 1467 1464 1460 1456 1452 1448 1446 1446 1448 1449 1451 1453 1453 1456 1455 1461 1466 1470 1472 1480 1480 1484
1498 1496 1494 1491 1489 1486 1483 1480 1478 1474 1469 1465 1461 1457 1454 1450 1445 1443 1443 1443 1444 1447 1448 1449 1448 1452 1457 1459 1457 1467 1462 1472 1480
1496 1494 1492 1490 1487 1484 1482 1478 1476 1473 1469 1463 1458 1456 1453 1449 1445 1440 1439 1438 1440 1443 1447 1446 1448 1451 1452 1454 1457 1461 1467 1458 1464
1495 1492 1490 1487 1485 1484 1481 1478 1474 1473 1470 1466 1461 1456 1453 1450 1447 1444 1441 1438 1439 1441 1444 1446 1448 1449 1451 1453 1456 1459 1459 1460 1464
1493 1490 1487 1485 1483 1481 1479 1477 1475 1471 1470 1468 1466 1461 1457 1452 1448 1447 1444 1441 1441 1441 1443 1445 1447 1448 1450 1451 1452 1452 1450 1450 1459
1490 1488 1486 1483 1481 1479 1477 1476 1474 1472 1469 1466 1465 1463 1460 1457 1452 1450 1447 1446 1445 1444 1445 1445 1446 1447 1449 1450 1451 1448 1451 1456 1462
1487 1485 1482 1481 1479 1477 1475 1474 1472 1470 1469 1467 1464 1462 1460 1458 1457 1453 1451 1450 1449 1448 1448 1448 1448 1448 1449 1449 1450 1450 1453 1458 1461
Wind_Speed
19 19 20 20 20 19 16 15 16 16 16 17 17 19 18 16 16 15 15 14 12 12 13 13 15 16 15 15 13 11 10 9 8
19 19 20 21 22 21 20 20 19 17 18 18 19 18 18 20 18 18 18 18 16 15 15 15 14 13 14 14 14 12 11 9 9
19 19 19 20 21 22 21 21 22 23 20 20 19 19 19 20 21 20 21 20 20 18 17 17 17 14 13 14 14 13 11 11 10
20 20 20 21 21 22 22 22 22 24 24 22 21 22 21 23 24 24 24 23 23 22 20 17 18 16 15 14 13 14 14 13 12
17 18 19 20 22 22 23 23 23 23 25 26 25 24 25 26 27 27 27 26 25 25 23 19 22 20 17 15 15 16 15 14 14
15 16 17 18 20 22 23 24 25 26 26 26 27 27 26 27 29 30 29 29 28 28 27 24 24 24 20 17 17 17 16 16 15
13 14 16 16 17 18 20 23 25 27 28 28 28 29 29 29 30 32 31 32 32 31 31 29 27 27 24 20 19 19 18 16 17
14 15 16 16 16 17 18 19 20 23 26 29 30 30 31 31 31 33 34 34 34 34 34 32 29 29 29 24 20 20 19 19 19
13 13 13 14 15 15 17 18 19 20 21 24 27 30 32 32 34 34 35 35 34 35 35 34 33 32 31 29 25 21 21 21 20
12 12 12 13 13 15 14 16 18 19 20 21 22 25 28 31 35 35 36 39 36 34 35 35 34 35 34 31 30 26 22 22 21
13 13 14 14 15 16 17 19 22 24 25 24 23 25 26 26 27 32 35 34 36 32 30 34 34 34 36 35 33 30 26 24 23
14 14 15 16 17 17 18 19 20 22 21 22 23 25 25 25 25 26 30 31 32 30 28 27 34 34 35 37 33 33 28 26 25
13 14 15 17 18 19 19 21 20 20 21 22 22 21 23 25 25 26 24 25 26 23 26 25 24 35 30 34 35 34 30 26 25
14 14 15 17 19 20 20 19 19 20 22 23 21 21 21 21 21 20 19 21 21 23 22 27 21 23 27 29 35 31 34 31 27
15 15 15 17 18 19 19 18 17 18 21 24 20 16 15 20 19 17 18 20 22 18 17 18 13 14 22 27 20 33 26 38 27
16 16 16 16 17 18 19 20 19 20 22 26 22 12 13 26 21 16 11 16 15 14 14 14 13 12 7 13 17 31 33 15 13
16 16 16 16 16 15 16 18 21 19 18 21 20 15 14 25 21 16 13 5 7 9 13 12 9 11 11 11 14 11 15 17 20
17 16 16 15 15 15 15 16 16 19 17 15 15 8 8 24 17 21 14 7 2 3 8 9 13 10 10 15 16 21 23 16 18
18 18 17 16 15 14 14 13 14 15 16 15 14 15 13 10 12 17 15 7 5 3 3 2 2 2 2 7 7 4 10 14 14
18 18 18 17 16 15 15 13 12 13 14 14 16 14 11 6 8 11 13 11 9 7 5 3 2 1 3 2 4 3 9 13 13
Wind_Direction
286 284 284 283 280 277 278 276 274 274 273 270 272 271 268 265 261 259 256 253 252 255 250 248 245 248 255 261 263 255 244 234 230
290 286 283 281 281 280 276 270 272 272 271 266 265 267 264 260 259 259 255 255 257 257 254 252 250 254 257 255 252 245 229 226 224
290 288 285 283 282 281 278 270 264 262 265 267 265 264 260 256 258 259 255 254 255 257 257 256 250 252 257 253 240 226 226 218 225
293 292 289 287 286 285 285 283 276 270 268 271 267 262 257 255 255 255 255 253 253 255 257 258 257 255 253 251 234 233 223 223 227
300 296 292 288 285 283 280 278 277 273 269 266 267 267 261 255 254 252 251 249 250 252 251 250 249 255 256 245 238 236 227 227 225
307 305 302 295 288 284 281 280 278 276 274 271 269 267 267 262 257 255 251 248 246 249 250 245 242 246 252 249 243 240 238 227 229
316 315 310 306 302 297 292 287 283 280 279 276 274 272 268 265 261 260 256 251 248 247 248 246 241 240 241 247 247 241 232 231 232
323 320 316 315 314 313 308 302 297 290 284 280 276 273 270 265 261 261 260 256 251 248 248 246 240 239 238 239 243 244 236 235 234
328 329 330 329 326 324 321 319 316 310 302 295 287 279 272 269 265 260 259 258 256 251 246 246 240 236 238 236 237 240 243 238 237
336 339 340 339 338 334 334 331 326 320 314 308 303 297 287 277 268 265 260 258 258 256 248 244 242 233 236 234 234 236 239 239 238
340 343 348 349 343 344 343 342 342 337 325 317 311 307 301 297 290 273 263 259 258 256 253 246 240 239 230 234 232 234 236 236 235
337 344 348 347 348 347 342 342 333 328 319 315 316 311 306 301 295 288 264 257 256 255 249 253 236 238 237 228 231 232 234 234 231
335 337 340 344 342 343 341 335 333 332 330 328 329 324 315 306 296 293 262 254 256 257 254 247 250 228 240 233 234 232 231 230 232
334 330 335 338 342 344 341 339 342 336 335 337 335 334 326 316 301 292 261 259 255 259 261 251 236 252 242 240 231 227 234 228 227
333 328 331 333 339 344 343 345 349 342 343 340 350 350 346 0 337 292 265 257 254 255 254 245 259 262 249 244 244 237 229 228 232
335 333 331 329 334 342 346 343 347 1 358 353 1 14 0 5 359 347 310 267 239 241 242 244 248 244 279 260 264 255 259 286 231
329 331 331 330 330 334 339 340 340 359 7 359 357 346 357 5 17 6 346 321 228 222 229 216 217 229 239 230 225 249 257 299 257
322 326 327 326 326 328 333 337 340 345 3 9 0 340 326 349 11 15 10 14 68 218 197 212 224 235 236 227 242 248 273 274 260
316 315 315 318 322 323 322 322 329 333 344 355 359 350 330 342 341 9 21 34 5 37 89 172 150 267 254 207 251 281 245 253 258
310 308 307 309 312 312 312 313 313 318 327 339 347 353 352 1 340 341 359 38 41 63 45 18 257 219 258 257 252 230 162 156 167